Temperature
18 18 17 17 17 17 17 17 17 17 17 17 17 17 17 17 18 18 18 17 17 17 17 17 17 17 17 17 17 17 17 17 17 17 17 17 16 16 16 16 16 16 16
18 17 17 17 17 17 17 17 17 17 17 17 17 17 17 17 17 17 17 17 17 17 17 17 17 17 17 17 17 17 17 17 17 17 17 17 17 16 16 16 16 16 16
17 17 17 17 17 17 17 17 17 17 17 17 17 17 17 17 17 17 17 17 17 17 17 17 17 17 17 17 17 17 17 17 17 17 17 17 16 16 16 16 16 16 16
17 17 17 17 17 17 17 17 17 17 17 17 17 17 17 17 17 17 17 17 17 17 17 16 17 17 17 17 17 17 17 17 16 16 16 16 16 16 16 16 16 16 16
17 17 17 16 16 16 16 16 16 17 17 17 17 17 17 17 17 17 17 17 17 17 17 16 16 16 16 16 16 16 16 16 16 16 16 16 16 16 16 16 16 16 16
17 16 16 16 16 16 16 16 16 16 17 17 17 17 17 17 17 17 17 17 17 17 17 16 16 16 16 16 16 16 16 16 16 16 16 16 16 16 16 16 16 16 16
16 16 16 16 16 16 16 16 16 16 16 17 17 17 17 17 17 17 17 17 17 17 17 16 16 16 16 16 16 16 16 16 16 16 16 16 16 16 16 16 16 16 16
16 16 16 16 16 16 16 16 16 16 16 16 17 17 17 17 17 17 17 17 16 16 16 16 16 16 16 16 16 16 16 16 16 16 16 16 16 16 16 16 16 16 16
16 16 16 16 16 16 15 15 16 16 16 16 16 17 17 17 17 17 17 16 16 16 16 16 16 16 16 16 16 16 16 16 16 15 15 15 15 15 16 16 16 16 16
16 16 16 16 15 15 15 15 15 16 16 16 16 16 16 17 17 16 16 16 16 16 16 16 16 16 16 16 16 15 15 15 15 15 15 15 15 15 15 15 15 16 16
16 16 16 16 16 15 15 15 15 16 16 16 16 16 16 16 16 16 16 16 16 16 16 16 16 16 16 16 15 15 15 15 15 15 15 15 15 15 15 15 15 15 15
16 16 16 16 16 16 16 15 15 15 16 15 16 16 16 16 16 16 16 16 16 16 16 16 16 16 16 16 15 15 15 15 15 15 15 15 15 15 15 15 15 15 15
17 16 16 16 16 16 16 16 16 16 16 16 16 16 16 16 16 16 16 16 16 16 16 16 16 16 16 16 15 15 15 15 15 15 15 15 15 15 15 15 15 15 15
17 17 16 16 16 16 16 16 16 16 16 16 16 16 16 15 15 16 16 16 16 16 16 16 16 16 16 15 15 15 15 15 15 15 15 15 15 15 15 15 15 15 15
17 17 17 17 17 17 17 16 16 16 16 16 16 16 16 15 15 15 15 15 15 15 16 16 16 16 15 15 15 15 15 15 15 14 14 15 15 15 15 15 15 15 15
17 17 17 17 17 17 17 17 17 17 17 16 16 16 16 16 15 15 15 15 15 15 15 15 15 15 15 15 15 15 14 14 14 14 14 14 15 15 15 15 15 15 15
17 17 17 17 17 17 17 17 17 17 17 16 16 16 16 16 15 15 15 15 15 15 15 15 15 15 15 15 15 14 14 14 14 14 14 14 14 14 14 14 14 14 14
17 17 17 17 17 17 17 17 17 17 17 17 16 16 16 16 16 15 15 15 15 14 14 15 15 15 15 15 14 14 14 14 14 14 14 14 14 14 14 14 14 14 14
17 17 17 17 17 17 17 17 17 17 17 16 16 16 16 16 16 15 15 15 15 15 14 14 15 15 15 15 14 14 14 14 14 14 14 14 14 14 14 14 14 14 14
17 17 17 17 16 16 16 16 16 16 16 16 16 16 16 16 16 15 15 15 15 15 14 14 15 15 15 15 14 15 15 15 15 14 14 14 14 14 14 14 14 14 13
17 17 16 16 16 16 16 16 16 16 15 15 15 15 15 15 15 15 15 15 14 14 14 14 14 14 15 15 14 14 14 14 14 14 14 14 14 14 14 14 14 14 13
16 16 16 16 16 15 15 15 15 15 15 15 15 15 15 14 14 14 14 14 14 13 13 13 13 13 14 14 14 14 13 13 14 14 14 14 14 14 14 14 14 14 14
15 15 15 15 14 14 14 14 14 14 14 14 14 14 14 14 13 13 13 13 13 13 13 13 13 13 13 13 13 13 13 13 13 13 13 13 13 13 14 14 14 14 13
14 14 14 14 14 13 13 13 13 13 13 13 13 12 12 12 12 12 12 12 12 12 12 12 12 12 12 12 12 12 12 12 12 12 12 12 13 13 14 14 14 13 13
13 13 13 13 13 12 12 12 12 12 12 12 12 12 12 11 11 11 11 11 11 12 11 11 11 11 11 11 11 11 11 11 11 12 12 12 12 13 13 13 13 13 13
12 12 12 12 12 12 11 12 12 11 11 11 11 11 10 10 10 10 10 10 10 10 10 11 11 11 11 11 11 11 11 10 10 11 12 12 12 12 12 13 13 13 13
Wind_Speed
3 3 2 3 3 3 4 4 3 3 3 4 5 6 7 8 10 9 10 13 15 16 16 16 16 15 15 15 14 14 14 14 14 14 14 13 13 12 12 11 11 10 10
4 3 2 2 2 2 4 4 3 3 2 2 3 5 8 10 11 11 11 12 15 17 17 17 17 16 16 15 15 15 14 14 14 15 14 14 14 13 12 12 11 11 10
6 4 3 2 2 2 3 3 2 2 2 1 1 3 6 8 9 11 12 12 13 16 18 18 17 17 16 16 16 15 15 15 15 15 15 15 15 14 13 13 12 12 11
8 6 3 2 3 5 4 3 2 2 2 2 1 2 3 5 8 10 11 12 12 13 16 18 17 17 16 16 16 16 16 16 17 17 16 16 16 15 15 14 13 13 13
8 6 3 3 5 5 3 3 3 2 2 1 2 2 2 3 4 7 8 10 12 12 13 15 16 16 16 16 16 16 16 16 17 17 17 17 17 16 16 15 15 14 14
7 6 4 4 6 4 4 3 3 2 1 1 1 2 1 1 2 3 4 7 9 11 12 12 13 14 16 16 16 16 16 16 17 17 17 17 17 18 18 17 17 16 16
7 6 4 4 4 4 3 3 3 4 3 2 3 3 4 2 0 1 2 3 4 6 9 11 11 11 12 15 16 16 16 16 16 17 18 18 18 19 19 19 18 18 18
6 6 5 3 3 4 4 4 3 2 3 2 3 3 3 4 3 1 1 3 3 3 5 8 10 10 10 10 13 15 16 15 16 17 18 19 19 19 19 19 19 20 19
7 7 6 4 3 3 3 3 3 4 3 3 2 4 4 3 2 3 1 1 3 2 2 4 7 9 10 10 10 12 14 15 15 15 16 17 18 19 19 20 20 20 20
6 7 6 6 4 3 3 2 3 3 4 3 2 2 2 4 3 0 3 2 1 2 3 2 4 7 9 9 9 10 11 12 13 13 13 14 16 18 19 20 20 20 21
5 6 6 5 4 3 3 3 4 4 3 3 2 1 3 3 3 3 1 3 3 2 2 3 3 6 9 9 9 9 9 9 9 10 10 11 12 14 16 18 19 20 20
2 4 5 5 5 4 4 4 4 4 3 3 2 2 2 2 1 3 2 1 2 3 2 2 3 4 8 10 10 10 10 9 8 8 8 8 9 11 13 15 17 18 19
4 5 5 4 4 4 4 4 4 3 3 3 3 2 2 2 2 3 3 1 1 3 3 2 3 5 7 11 11 12 11 11 9 8 8 8 9 9 10 12 13 15 16
6 7 6 6 6 6 5 4 3 3 3 3 3 2 2 1 2 3 4 4 1 2 3 4 3 4 7 11 14 14 12 12 11 11 10 10 10 10 11 11 12 13 14
6 7 7 8 6 6 5 5 4 4 3 4 3 3 2 2 1 2 3 4 5 2 3 4 3 2 5 9 13 14 13 14 14 14 13 13 13 13 14 14 14 14 14
6 7 8 8 8 7 6 6 4 4 4 4 4 3 3 2 2 1 2 2 3 5 4 4 4 3 3 6 12 14 15 16 17 17 17 17 17 17 17 17 17 16 16
7 8 9 9 9 8 7 7 6 6 6 6 5 5 6 4 3 3 2 2 3 4 5 5 3 3 3 4 5 11 14 14 16 19 19 20 20 20 20 20 20 20 19
6 8 8 9 9 9 8 9 9 8 7 7 7 7 7 5 6 5 4 4 4 4 5 6 4 3 5 6 5 6 9 13 15 18 21 22 22 23 23 23 23 22 22
5 5 7 8 8 8 8 8 8 8 8 8 7 7 8 7 7 6 6 6 5 5 5 5 6 4 5 5 5 6 6 7 12 16 19 22 23 24 24 24 25 25 25
3 4 5 6 6 6 6 7 7 7 7 8 7 8 8 8 9 8 7 7 6 6 5 6 7 6 6 6 4 6 7 6 7 10 15 17 19 22 23 24 25 26 26
3 3 3 3 4 4 4 4 5 6 6 7 7 8 8 9 10 9 8 7 7 7 6 7 8 6 7 5 6 5 7 8 7 6 7 8 9 10 14 19 22 24 26
0 1 2 3 3 2 3 3 4 4 4 6 7 7 8 8 9 10 11 10 9 9 9 8 8 9 11 8 7 7 7 7 8 5 6 8 6 9 9 15 20 23 25
3 2 2 2 2 1 1 1 2 2 2 3 4 4 5 4 3 4 6 7 8 9 10 8 9 10 10 8 7 8 8 9 10 7 4 8 6 9 8 17 22 24 25
4 3 3 3 3 2 3 2 1 1 1 2 3 3 2 3 5 4 4 5 6 7 9 8 8 10 10 9 9 11 11 11 9 7 7 9 8 9 10 12 21 25 26
4 3 3 4 4 3 4 4 3 2 3 3 4 4 3 3 6 7 5 6 8 8 10 12 13 14 16 17 13 8 8 9 12 9 7 7 8 9 9 10 15 23 26
4 4 5 4 4 4 6 6 6 4 4 3 3 4 5 5 7 7 5 5 9 10 10 12 12 13 12 13 16 13 11 12 10 8 7 7 9 7 7 8 10 12 16
Wind_Direction
121 126 131 140 154 160 164 172 178 177 175 167 161 150 154 168 177 184 201 204 200 193 185 183 181 181 180 179 178 178 178 177 176 174 172 171 170 169 168 167 165 163 160
115 113 102 100 108 141 159 164 165 163 175 172 168 150 160 165 177 187 203 208 206 199 194 190 189 187 186 186 185 185 186 185 185 183 180 179 179 178 177 176 174 174 173
107 109 101 87 68 95 122 119 116 114 128 146 180 154 161 172 178 188 195 202 205 205 202 197 196 195 193 192 192 191 192 191 191 191 190 188 187 187 186 186 185 184 183
107 98 94 75 66 80 98 104 92 95 88 102 133 158 161 172 184 189 194 199 203 206 208 205 202 201 200 200 199 198 198 198 198 198 197 197 196 196 195 194 194 194 194
106 98 88 71 83 80 78 99 81 99 103 109 143 151 164 173 179 186 191 198 202 205 208 212 210 207 207 208 207 206 205 205 205 204 204 204 204 204 204 203 203 202 203
107 103 93 75 84 81 69 72 74 65 100 125 90 89 106 171 164 170 183 189 200 206 208 211 212 214 215 214 213 213 211 210 210 210 211 211 211 211 211 210 210 210 210
112 102 96 81 83 87 83 78 75 60 39 47 67 35 10 10 79 188 175 169 187 200 203 207 208 211 218 221 220 218 217 216 215 216 216 217 217 217 216 216 216 217 217
127 117 113 105 98 91 70 59 68 77 31 46 106 89 38 1 356 356 170 166 173 174 183 197 201 207 213 218 224 224 223 223 223 221 222 222 223 222 220 221 221 222 223
137 129 123 116 109 110 101 82 78 92 67 19 74 133 136 193 299 337 344 159 168 167 182 186 194 204 208 213 218 223 224 225 227 228 227 226 227 227 226 226 226 226 227
152 145 134 123 116 117 114 107 93 96 104 55 13 38 134 152 142 48 334 331 258 188 195 194 182 191 197 199 207 216 222 226 230 233 234 233 231 230 231 232 231 230 230
173 166 152 134 128 130 129 112 102 95 102 107 79 55 57 59 86 132 203 313 332 299 236 209 186 183 191 193 198 207 212 219 227 234 238 240 238 236 236 237 237 236 235
197 188 171 155 150 150 148 142 128 119 113 109 100 97 113 110 117 128 156 244 282 294 287 248 209 192 193 192 195 197 200 206 215 227 238 246 248 246 244 243 243 243 241
205 207 184 173 168 174 170 157 145 143 143 136 139 132 127 144 161 144 134 158 294 305 318 298 251 219 201 193 196 195 197 202 209 219 232 243 250 254 254 253 251 250 248
207 201 190 186 184 182 180 167 166 178 168 165 164 157 157 177 158 158 155 144 89 331 324 290 292 237 215 198 199 196 201 207 213 221 231 241 250 255 257 257 256 255 255
211 202 193 192 192 188 185 179 190 202 194 202 205 197 201 224 193 179 168 156 151 183 272 281 290 280 227 214 209 203 209 216 222 228 235 243 249 254 256 257 257 256 256
206 194 195 194 196 196 192 188 200 210 202 216 214 214 227 236 236 208 177 178 167 169 218 258 257 268 243 230 225 217 221 225 228 233 239 245 250 254 255 255 255 255 254
201 194 194 194 197 201 199 197 210 209 212 226 230 223 233 232 235 239 216 196 189 174 214 263 260 265 249 243 235 230 237 236 237 240 244 248 252 255 255 254 253 252 252
207 198 194 196 204 207 205 204 214 215 214 224 230 230 236 235 234 234 229 230 224 207 208 250 267 261 251 244 239 239 242 242 241 246 248 250 253 255 255 254 251 250 250
214 205 195 202 210 212 211 214 216 218 220 223 223 225 233 229 237 236 232 235 237 235 215 233 259 252 255 250 251 256 250 249 249 250 251 252 253 254 255 253 250 249 248
207 202 200 204 210 213 213 218 218 221 228 232 229 228 228 223 230 232 235 235 234 239 237 241 257 261 259 256 244 253 266 255 253 254 253 253 252 253 253 252 250 249 249
202 200 198 201 209 210 218 220 229 229 231 242 245 242 240 235 233 232 238 234 230 237 240 244 256 263 262 256 248 244 257 264 262 245 252 254 250 251 252 252 251 250 249
142 148 193 190 176 191 181 197 219 241 242 249 253 254 255 252 254 251 250 247 235 236 242 244 251 253 259 253 252 249 252 260 269 245 229 254 237 246 246 246 248 247 247
77 89 99 99 125 138 110 6 286 253 264 271 275 283 287 302 314 302 289 283 270 261 250 248 253 256 261 257 253 256 249 246 253 246 221 255 245 250 249 250 247 246 247
70 69 71 77 75 52 65 61 10 354 350 332 330 337 331 360 11 1 337 320 301 291 278 267 259 264 266 263 252 254 258 260 258 250 223 252 252 250 252 247 248 247 246
54 53 67 74 69 27 39 65 84 69 46 19 12 23 45 53 18 14 358 325 310 300 294 286 279 273 272 269 264 266 261 259 266 259 224 237 252 255 254 253 251 247 246
62 63 60 60 71 59 53 63 75 71 56 33 21 22 32 16 353 352 339 316 303 299 303 304 297 286 274 268 262 251 250 256 262 262 230 229 249 246 261 251 247 247 247
Height
1552 1553 1554 1555 1556 1556 1558 1559 1560 1561 1562 1564 1566 1567 1567 1568 1569 1570 1571 1572 1573 1575 1576 1577 1578 1579 1580 1581 1582 1583 1585 1586 1587 1588 1589 1589 1590 1591 1592 1593 1594 1595 1596
1552 1552 1553 1553 1554 1555 1556 1558 1559 1560 1562 1563 1564 1566 1566 1567 1568 1570 1570 1571 1573 1574 1575 1577 1578 1579 1580 1581 1582 1583 1584 1585 1586 1588 1589 1589 1590 1591 1592 1593 1594 1595 1596
1551 1551 1552 1553 1554 1555 1556 1557 1558 1559 1560 1562 1563 1565 1566 1567 1568 1569 1570 1570 1571 1573 1574 1576 1577 1578 1579 1580 1581 1582 1583 1585 1586 1587 1588 1589 1590 1591 1592 1593 1594 1595 1596
1550 1551 1552 1553 1553 1554 1555 1556 1557 1558 1560 1561 1563 1564 1565 1566 1567 1568 1569 1570 1571 1572 1573 1574 1576 1577 1578 1579 1580 1581 1582 1584 1585 1586 1587 1588 1589 1590 1591 1592 1593 1594 1595
1550 1551 1551 1552 1553 1554 1555 1556 1557 1558 1559 1561 1562 1563 1565 1566 1566 1567 1568 1569 1570 1571 1572 1573 1574 1575 1576 1577 1578 1580 1581 1582 1583 1585 1586 1587 1588 1589 1590 1591 1592 1593 1594
1550 1550 1551 1552 1553 1553 1554 1555 1556 1558 1559 1560 1562 1563 1564 1566 1566 1567 1568 1568 1569 1570 1571 1572 1573 1574 1574 1576 1577 1578 1579 1580 1581 1583 1584 1585 1587 1588 1589 1590 1591 1592 1593
1549 1550 1551 1551 1552 1553 1554 1555 1556 1557 1558 1560 1561 1563 1564 1565 1566 1566 1567 1568 1569 1569 1570 1571 1571 1572 1573 1574 1574 1576 1577 1578 1579 1580 1582 1583 1584 1586 1587 1588 1589 1590 1591
1549 1550 1550 1551 1552 1552 1553 1554 1555 1557 1558 1559 1560 1561 1563 1566 1565 1566 1566 1567 1568 1568 1569 1569 1570 1570 1571 1572 1573 1573 1574 1575 1576 1577 1579 1580 1581 1583 1584 1585 1586 1587 1589
1549 1550 1550 1550 1551 1552 1552 1553 1555 1556 1557 1558 1559 1561 1562 1563 1564 1565 1565 1566 1567 1567 1567 1568 1568 1569 1569 1570 1570 1571 1572 1572 1573 1574 1575 1577 1578 1579 1580 1582 1583 1584 1585
1549 1550 1550 1550 1551 1551 1552 1553 1554 1556 1557 1557 1558 1559 1561 1561 1562 1564 1565 1565 1566 1566 1566 1567 1567 1567 1568 1568 1568 1569 1570 1570 1571 1571 1572 1573 1574 1575 1577 1578 1579 1580 1582
1549 1550 1550 1550 1550 1551 1552 1553 1554 1555 1556 1557 1558 1559 1559 1560 1561 1562 1563 1564 1565 1565 1565 1565 1566 1566 1566 1566 1566 1567 1567 1568 1568 1568 1569 1570 1570 1571 1572 1573 1574 1576 1577
1549 1549 1550 1550 1550 1551 1551 1552 1553 1554 1556 1557 1557 1558 1559 1559 1560 1561 1561 1562 1563 1563 1563 1564 1564 1564 1564 1564 1564 1565 1565 1565 1565 1566 1566 1566 1566 1567 1568 1568 1569 1570 1572
1548 1549 1550 1550 1551 1551 1551 1552 1553 1554 1555 1556 1556 1557 1558 1558 1559 1560 1560 1561 1561 1561 1562 1562 1562 1562 1562 1562 1562 1563 1563 1563 1563 1563 1563 1563 1563 1563 1563 1564 1564 1565 1566
1548 1548 1549 1550 1550 1551 1551 1551 1552 1553 1553 1554 1555 1556 1557 1557 1558 1558 1559 1559 1559 1560 1559 1560 1560 1560 1560 1560 1560 1560 1560 1560 1559 1559 1559 1558 1558 1558 1559 1559 1560 1560 1561
1547 1548 1548 1549 1549 1550 1550 1551 1551 1552 1552 1553 1553 1554 1555 1555 1556 1556 1557 1557 1558 1557 1557 1557 1557 1557 1557 1557 1558 1557 1557 1557 1556 1555 1555 1554 1554 1554 1554 1554 1555 1555 1556
1545 1546 1546 1547 1548 1549 1549 1550 1550 1551 1551 1551 1552 1552 1553 1553 1554 1554 1554 1555 1555 1555 1554 1554 1554 1554 1554 1554 1554 1554 1554 1553 1552 1551 1550 1549 1549 1549 1549 1549 1549 1550 1550
1542 1543 1544 1545 1546 1547 1548 1548 1549 1549 1549 1550 1550 1550 1551 1551 1552 1552 1552 1552 1552 1552 1551 1551 1551 1551 1551 1551 1550 1550 1549 1549 1548 1547 1546 1545 1544 1544 1544 1544 1544 1544 1544
1540 1541 1542 1543 1544 1545 1545 1546 1546 1547 1547 1547 1548 1548 1548 1549 1549 1549 1549 1549 1549 1549 1548 1547 1547 1547 1547 1547 1546 1546 1545 1544 1543 1542 1541 1540 1539 1539 1538 1538 1538 1538 1538
1537 1538 1539 1540 1541 1542 1542 1542 1543 1543 1544 1544 1545 1545 1545 1545 1545 1545 1545 1545 1545 1545 1544 1543 1541 1542 1542 1542 1541 1540 1539 1539 1538 1537 1536 1535 1534 1534 1533 1533 1532 1532 1532
1533 1534 1535 1536 1536 1537 1538 1538 1539 1539 1539 1540 1541 1541 1541 1541 1541 1541 1541 1540 1540 1540 1539 1538 1537 1536 1536 1536 1535 1534 1533 1533 1532 1532 1531 1530 1529 1528 1527 1527 1526 1526 1526
1529 1530 1530 1531 1531 1532 1532 1533 1533 1534 1534 1535 1535 1535 1535 1535 1535 1536 1535 1535 1535 1534 1533 1532 1531 1530 1529 1529 1529 1528 1527 1526 1524 1525 1524 1523 1523 1521 1521 1520 1520 1520 1519
1524 1524 1525 1525 1525 1526 1526 1527 1528 1529 1529 1529 1529 1529 1529 1529 1529 1529 1528 1528 1528 1527 1526 1525 1523 1522 1521 1522 1522 1521 1520 1518 1515 1517 1516 1515 1515 1513 1513 1513 1513 1513 1512
1519 1519 1520 1520 1520 1521 1522 1523 1523 1523 1523 1523 1522 1522 1522 1522 1522 1521 1521 1521 1520 1520 1519 1518 1516 1514 1514 1514 1514 1512 1511 1509 1507 1508 1508 1504 1505 1504 1504 1504 1505 1505 1504
1517 1517 1517 1517 1517 1517 1518 1518 1519 1518 1518 1518 1517 1516 1515 1514 1514 1514 1513 1512 1512 1511 1511 1509 1508 1506 1505 1505 1504 1503 1501 1499 1497 1498 1498 1494 1494 1494 1494 1494 1495 1495 1495
1515 1515 1515 1515 1515 1515 1515 1514 1514 1514 1514 1513 1513 1512 1510 1509 1508 1507 1506 1503 1502 1502 1501 1499 1498 1496 1495 1495 1495 1493 1491 1489 1484 1485 1487 1485 1483 1483 1483 1482 1484 1484 1485
1514 1514 1514 1514 1513 1512 1512 1511 1511 1510 1510 1509 1508 1507 1505 1503 1502 1500 1498 1495 1493 1491 1490 1487 1486 1485 1484 1483 1483 1482 1480 1478 1474 1472 1474 1475 1473 1473 1469 1470 1472 1473 1473